User: anonymous   Login
Location: NC_16_and_73
(35.4490°N, 81.0150°W)
Time: 16:32:57
(UTC-05:00)
Language:

Cosmos-2242 - Orbit

View from above orbital plane
View from above orbital plane
View from above satellite
View from above satellite

Ground track
Ground track

The orbit data is extracted from the following two-line orbital elements,

1 22626U 93024A   14332.44965603  .00001642  00000-0  18313-3 0  2722
2 22626 082.5231 199.6070 0018893 336.0779 023.9558 14.86340877167663
Epoch (UTC): 28 November 2014 10:47:30
Eccentricity: 0.0018893
inclination: 82.5231°
perigee height: 596 km
apogee height: 622 km
right ascension of ascending node: 199.6070°
argument of perigee: 336.0779°
revolutions per day: 14.86340877
mean anomaly at epoch: 23.9558°
orbit number at epoch: 16766

The dashed part of the orbit path shows where the satellite is in the earth's shadow,  

DLR